When you browse on this site, cookies collect data to enhance your experience and personalize the content and advertising you see.
Visit our Privacy Policy to learn more. By continuing to use the site, you agree to this use of cookies and data.
  • en France
  • Liste des pays
  • À 7 jours
  • Température de l'eau
  • Carte satellitaire
  • Carte météo
  • Widgets météo
  • user-avatar
    Se connecter

    Météo par heure à Gankovo

    Ce jour, 18 Février, Lundi

    Heure Température Précipitation Vent Pression Humidité
    00:00 -3°C° 0 mm 2 m/s 756 mmHg 89%
    01:00 -3°C° 0 mm 2 m/s 756 mmHg 90%
    02:00 -5°C° 0 mm 2 m/s 756 mmHg 93%
    03:00 -5°C° 0 mm 2 m/s 757 mmHg 93%
    04:00 -4°C° 0 mm 1 m/s 757 mmHg 93%
    05:00 -4°C° 0 mm 1 m/s 758 mmHg 93%
    06:00 -4°C° 0 mm 1 m/s 758 mmHg 92%
    07:00 -4°C° 0 mm 1 m/s 758 mmHg 92%
    08:00 -4°C° 0 mm 1 m/s 759 mmHg 91%
    09:00 -3°C° 0 mm 1 m/s 759 mmHg 85%
    10:00 -2°C° 0 mm 0 m/s 759 mmHg 79%
    11:00 -1°C° 0 mm 0 m/s 759 mmHg 72%
    12:00 +1°C° 0 mm 1 m/s 759 mmHg 70%
    13:00 +2°C° 0 mm 1 m/s 759 mmHg 67%
    14:00 +2°C° 0 mm 1 m/s 758 mmHg 65%
    15:00 -1°C° 0 mm 2 m/s 758 mmHg 68%
    16:00 -1°C° 0 mm 2 m/s 758 mmHg 72%
    17:00 -2°C° 0 mm 2 m/s 757 mmHg 76%
    18:00 -2°C° 0 mm 2 m/s 757 mmHg 77%
    19:00 -2°C° 0 mm 3 m/s 757 mmHg 78%
    20:00 -4°C° 0 mm 3 m/s 757 mmHg 80%
    21:00 -4°C° 0 mm 3 m/s 756 mmHg 80%
    22:00 -2°C° 0 mm 3 m/s 756 mmHg 81%
    23:00 -3°C° 0 mm 4 m/s 755 mmHg 82%

    Demain, 19 Février, Mardi

    Heure Température Précipitation Vent Pression Humidité
    00:00 -3°C° 0 mm 4 m/s 755 mmHg 84%
    01:00 -3°C° 0 mm 4 m/s 754 mmHg 86%
    02:00 -2°C° 0 mm 4 m/s 754 mmHg 88%
    03:00 -2°C° 0 mm 4 m/s 753 mmHg 88%
    04:00 -2°C° 0 mm 4 m/s 753 mmHg 88%
    05:00 -2°C° 0 mm 5 m/s 752 mmHg 89%
    06:00 -2°C° 0 mm 5 m/s 752 mmHg 89%
    07:00 -2°C° 0 mm 5 m/s 751 mmHg 90%
    08:00 -2°C° 0 mm 4 m/s 751 mmHg 90%
    09:00 -1°C° 0 mm 5 m/s 750 mmHg 89%
    10:00 0°C° 0 mm 5 m/s 750 mmHg 88%
    11:00 +1°C° 0 mm 5 m/s 749 mmHg 87%
    12:00 +1°C° 0 mm 5 m/s 749 mmHg 87%
    13:00 +1°C° 0 mm 5 m/s 748 mmHg 87%
    14:00 +1°C° 0 mm 5 m/s 748 mmHg 87%
    15:00 +1°C° 0 mm 5 m/s 747 mmHg 87%
    16:00 +1°C° 0 mm 4 m/s 746 mmHg 88%
    17:00 +1°C° 0 mm 4 m/s 745 mmHg 89%
    18:00 +1°C° 0 mm 4 m/s 745 mmHg 89%
    19:00 +1°C° 0 mm 5 m/s 744 mmHg 89%
    20:00 +1°C° 0 mm 5 m/s 743 mmHg 89%
    21:00 +1°C° 0 mm 5 m/s 743 mmHg 88%
    22:00 +1°C° 0 mm 5 m/s 742 mmHg 88%
    23:00 +1°C° 0 mm 5 m/s 742 mmHg 88%

    Après-demain, 20 Février, Mercredi

    Heure Température Précipitation Vent Pression Humidité
    00:00 +1°C° 0.2 mm 5 m/s 742 mmHg 88%
    01:00 +1°C° 0.2 mm 5 m/s 741 mmHg 89%
    02:00 +1°C° 0.2 mm 5 m/s 741 mmHg 90%
    03:00 +1°C° 0 mm 5 m/s 741 mmHg 90%
    04:00 +1°C° 0 mm 5 m/s 741 mmHg 90%
    05:00 +1°C° 0 mm 5 m/s 741 mmHg 90%
    06:00 +1°C° 0 mm 5 m/s 741 mmHg 89%
    07:00 0°C° 0 mm 5 m/s 741 mmHg 88%
    08:00 0°C° 0 mm 5 m/s 741 mmHg 87%
    09:00 0°C° 0 mm 5 m/s 741 mmHg 85%
    10:00 +1°C° 0 mm 5 m/s 741 mmHg 82%
    11:00 +1°C° 0 mm 6 m/s 742 mmHg 80%
    12:00 +1°C° 0 mm 6 m/s 742 mmHg 80%
    13:00 +1°C° 0 mm 6 m/s 742 mmHg 79%
    14:00 +1°C° 0 mm 6 m/s 742 mmHg 79%
    15:00 +1°C° 0 mm 6 m/s 742 mmHg 80%
    16:00 +1°C° 0 mm 6 m/s 742 mmHg 81%
    17:00 -1°C° 0 mm 6 m/s 742 mmHg 82%
    18:00 -2°C° 0.1 mm 6 m/s 742 mmHg 78%
    19:00 -3°C° 0.1 mm 6 m/s 743 mmHg 74%
    20:00 -4°C° 0.1 mm 7 m/s 743 mmHg 70%
    21:00 -4°C° 0 mm 7 m/s 744 mmHg 70%
    22:00 -4°C° 0 mm 6 m/s 745 mmHg 71%
    23:00 -5°C° 0 mm 6 m/s 745 mmHg 72%

    21 Février, Jeudi

    Heure Température Précipitation Vent Pression Humidité
    00:00 -5°C° 0 mm 6 m/s 746 mmHg 70%
    01:00 -5°C° 0 mm 6 m/s 746 mmHg 69%
    02:00 -6°C° 0 mm 6 m/s 747 mmHg 68%
    03:00 -6°C° 0.1 mm 6 m/s 747 mmHg 67%
    04:00 -8°C° 0.1 mm 6 m/s 748 mmHg 66%
    05:00 -8°C° 0.1 mm 6 m/s 748 mmHg 65%
    06:00 -8°C° 0 mm 6 m/s 749 mmHg 64%
    07:00 -8°C° 0 mm 6 m/s 749 mmHg 62%
    08:00 -9°C° 0 mm 6 m/s 750 mmHg 61%
    09:00 -8°C° 0 mm 6 m/s 751 mmHg 60%
    10:00 -8°C° 0 mm 6 m/s 751 mmHg 58%
    11:00 -8°C° 0 mm 6 m/s 752 mmHg 57%
    12:00 -8°C° 0 mm 6 m/s 752 mmHg 56%
    13:00 -6°C° 0 mm 6 m/s 753 mmHg 56%
    14:00 -6°C° 0 mm 6 m/s 754 mmHg 55%
    15:00 -8°C° 0 mm 6 m/s 754 mmHg 57%
    16:00 -7°C° 0 mm 5 m/s 755 mmHg 59%
    17:00 -8°C° 0 mm 5 m/s 755 mmHg 61%
    18:00 -8°C° 0 mm 5 m/s 756 mmHg 62%
    19:00 -8°C° 0 mm 5 m/s 757 mmHg 64%
    20:00 -10°C° 0 mm 5 m/s 758 mmHg 65%
    21:00 -10°C° 0 mm 5 m/s 759 mmHg 66%
    22:00 -9°C° 0 mm 4 m/s 760 mmHg 66%
    23:00 -10°C° 0 mm 4 m/s 760 mmHg 66%

    22 Février, Vendredi

    Heure Température Précipitation Vent Pression Humidité
    00:00 -10°C° 0 mm 4 m/s 761 mmHg 67%
    01:00 -10°C° 0 mm 4 m/s 762 mmHg 68%
    02:00 -9°C° 0 mm 3 m/s 763 mmHg 69%
    03:00 -9°C° 0 mm 3 m/s 763 mmHg 69%
    04:00 -10°C° 0 mm 3 m/s 764 mmHg 69%
    05:00 -10°C° 0 mm 3 m/s 764 mmHg 69%
    06:00 -10°C° 0 mm 3 m/s 765 mmHg 70%
    07:00 -10°C° 0 mm 3 m/s 766 mmHg 71%
    08:00 -10°C° 0 mm 3 m/s 767 mmHg 72%
    09:00 -9°C° 0 mm 3 m/s 767 mmHg 68%
    10:00 -8°C° 0 mm 3 m/s 768 mmHg 64%
    11:00 -7°C° 0 mm 3 m/s 768 mmHg 61%
    12:00 -6°C° 0 mm 3 m/s 769 mmHg 57%
    13:00 -5°C° 0 mm 2 m/s 769 mmHg 53%
    14:00 -4°C° 0 mm 2 m/s 769 mmHg 50%
    15:00 -4°C° 0 mm 2 m/s 769 mmHg 52%
    16:00 -4°C° 0 mm 2 m/s 769 mmHg 55%
    17:00 -3°C° 0 mm 1 m/s 770 mmHg 57%
    18:00 -3°C° 0 mm 1 m/s 770 mmHg 59%
    19:00 -5°C° 0 mm 2 m/s 770 mmHg 61%
    20:00 -6°C° 0 mm 2 m/s 770 mmHg 63%
    21:00 -6°C° 0 mm 2 m/s 769 mmHg 61%
    22:00 -7°C° 0 mm 3 m/s 769 mmHg 59%
    23:00 -7°C° 0 mm 3 m/s 769 mmHg 57%

    23 Février, Samedi

    Heure Température Précipitation Vent Pression Humidité
    00:00 -6°C° 0 mm 3 m/s 768 mmHg 54%
    01:00 -7°C° 0 mm 4 m/s 768 mmHg 51%
    02:00 -5°C° 0 mm 4 m/s 767 mmHg 49%
    03:00 -5°C° 0.1 mm 4 m/s 766 mmHg 55%
    04:00 -6°C° 0.1 mm 5 m/s 765 mmHg 62%
    05:00 -6°C° 0.1 mm 5 m/s 764 mmHg 69%
    06:00 -7°C° 1 mm 5 m/s 763 mmHg 77%
    07:00 -7°C° 1 mm 5 m/s 762 mmHg 85%
    08:00 -7°C° 1 mm 5 m/s 761 mmHg 94%
    09:00 -6°C° 0.6 mm 5 m/s 760 mmHg 91%
    10:00 -5°C° 0.6 mm 5 m/s 759 mmHg 89%
    11:00 -2°C° 0.6 mm 5 m/s 759 mmHg 86%
    12:00 -1°C° 0 mm 5 m/s 758 mmHg 88%
    13:00 0°C° 0 mm 5 m/s 757 mmHg 89%
    14:00 +1°C° 0 mm 4 m/s 757 mmHg 90%
    15:00 +1°C° 0 mm 4 m/s 756 mmHg 92%
    16:00 +2°C° 0 mm 3 m/s 756 mmHg 93%
    17:00 +2°C° 0 mm 3 m/s 756 mmHg 95%
    18:00 +2°C° 0 mm 3 m/s 756 mmHg 95%
    19:00 +1°C° 0 mm 3 m/s 757 mmHg 95%
    20:00 +1°C° 0 mm 3 m/s 757 mmHg 95%
    21:00 +1°C° 0 mm 3 m/s 757 mmHg 95%
    22:00 +1°C° 0 mm 3 m/s 757 mmHg 95%
    23:00 0°C° 0 mm 3 m/s 758 mmHg 96%
    Voir plus